Location: Brantley
(31.5822°N, 86.2569°W)
Time: 05:08:12
(UTC+00:00)

Vanguard 2 - Pass Details

Date: 25 February 2026
Orbit: 553 x 2896 km, 32.9° (Epoch: 5 March)

Event Time Altitude Azimuth Distance (km) Brightness Sun altitude
Rises 11:47:05 0° 276° (W) 4,338 - -7.0°
Exits shadow 11:49:46 - 277° (W) 3,324 10.1 -6.4°
Reaches altitude 10° 11:50:37 10° 277° (W) 2,998 9.9 -6.3°
Maximum altitude 11:57:26 81° 4° (N) 796 7.6 -4.8°
Drops below altitude 10° 12:01:56 10° 93° (E) 2,009 11.7 -3.9°
Sets 12:03:55 0° 95° (E) 2,810 13.6 -3.5°
